Location: Bemmer
(51.5498°N, 5.6249°E)
Time: 12:38:51
(UTC+00:00)

Cosmos 1777 Rocket - Pass Details

Date: 03 March 2021
Orbit: 759 x 775 km, 74.0° (Epoch: 11 April)

Event Time Altitude Azimuth Distance (km) Brightness Sun altitude
Rises 18:26:10 0° 337° (NNW) 3,253 7.6 -10.8°
Reaches altitude 10° 18:28:41 10° 344° (NNW) 2,320 6.7 -11.2°
Maximum altitude 18:33:42 43° 57° (ENE) 1,064 4.4 -12.0°
Enters shadow 18:38:03 13° 126° (SE) 2,076 5.7 -12.7°
